Prestwick, United Kingdom

10:19 PM BST on July 26, 2017 (GMT +0100)
Prestwick

Weather History for EGPK - April, 2013

Change the Weather History Date:

Wednesday, April 3, 2013

  Actual Average Record
Temperature  
Mean Temperature 37 °F -  
Max Temperature 50 °F 52 °F 59 °F (1999)
Min Temperature 24 °F 39 °F 24 °F (2013)
Degree Days  
Heating Degree Days 28    
Moisture  
Dew Point 26 °F    
Average Humidity 62    
Maximum Humidity 93    
Minimum Humidity 32    
Precipitation  
Precipitation 0.00 in - - ()
Sea Level Pressure  
Sea Level Pressure 30.28 in    
Wind  
Wind Speed 4 mph ()    
Max Wind Speed 13 mph    
Max Gust Speed -    
Visibility 6.2 miles    
Events      
Averages and records for this station are not official NWS values.
T = Trace of Precipitation, MM = Missing Value Source: Averaged Metar Reports

Daily Weather History Graph

Daily Weather History Graph

Search for Another Location

Airport or City:

Trip Planner

Search our weather history database for the weather conditions in past years. The results will help you decide how hot, cold, wet, or windy it might be!

Date:

Astronomy

Apr. 03, 2013 Rise Set
Actual Time 6:44 AM BST 8:00 PM BST
Civil Twilight 6:06 AM BST 8:38 PM BST
Nautical Twilight 5:20 AM BST 9:24 PM BST
Astronomical Twilight 4:28 AM BST 10:16 PM BST
Moon 3:21 AM BST (4/3) 11:49 AM BST (4/3)
Length of Visible Light 14h 31m
Length of Day
13h 16m
Waning Gibbous, 47% of the Moon is Illuminated
Apr 3
Waning Gibbous
Apr 10
New
Apr 18
First Quarter
Apr 25
Full
May 2
Last Quarter

Hourly Weather History & Observations

Time (BST) Temp. Windchill Dew Point Humidity Pressure Visibility Wind Dir Wind Speed Gust Speed Precip Events Conditions
12:20 AM 30.2 °F 25.4 °F 26.6 °F 86% 30.24 in 6.2 mi ESE 4.6 mph - N/A   Partly Cloudy
12:50 AM 28.4 °F - 24.8 °F 86% 30.27 in 6.2 mi East 2.3 mph - N/A   Partly Cloudy
1:50 AM 28.4 °F 24.6 °F 24.8 °F 86% 30.27 in 6.2 mi Variable 3.5 mph - N/A   Partly Cloudy
2:50 AM 26.6 °F 21.2 °F 23.0 °F 86% 30.27 in 6.2 mi East 4.6 mph - N/A   Partly Cloudy
3:50 AM 24.8 °F - 23.0 °F 93% 30.27 in 6.2 mi Calm Calm - N/A   Partly Cloudy
4:50 AM 24.8 °F 17.9 °F 21.2 °F 86% 30.27 in 6.2 mi East 5.8 mph - N/A   Partly Cloudy
5:50 AM 26.6 °F - 23.0 °F 86% 30.27 in - Calm Calm - N/A   Clear
6:50 AM 26.6 °F - 23.0 °F 86% 30.27 in - Calm Calm - N/A   Clear
7:20 AM 26.6 °F - 23.0 °F 86% 30.27 in - Calm Calm - N/A   Clear
7:50 AM 26.6 °F - 24.8 °F 93% 30.30 in - ENE 2.3 mph - N/A   Clear
8:20 AM 32.0 °F - 26.6 °F 80% 30.30 in - Calm Calm - N/A   Clear
8:50 AM 33.8 °F - 26.6 °F 75% 30.30 in - East 2.3 mph - N/A   Clear
9:20 AM 35.6 °F - 30.2 °F 81% 30.30 in - Calm Calm - N/A   Clear
9:50 AM 39.2 °F 37.0 °F 30.2 °F 70% 30.30 in - NE 3.5 mph - N/A   Clear
10:20 AM 41.0 °F 39.0 °F 30.2 °F 65% 30.30 in - ENE 3.5 mph - N/A   Clear
10:50 AM 42.8 °F 38.6 °F 28.4 °F 57% 30.30 in 6.2 mi East 6.9 mph - N/A   Partly Cloudy
11:20 AM 44.6 °F 41.4 °F 26.6 °F 49% 30.30 in 6.2 mi ENE 5.8 mph - N/A   Partly Cloudy
11:50 AM 46.4 °F 42.9 °F 24.8 °F 43% 30.30 in 6.2 mi ENE 6.9 mph - N/A   Partly Cloudy
12:20 PM 48.2 °F - 23.0 °F 37% 30.30 in 6.2 mi East 6.9 mph - N/A   Partly Cloudy
12:50 PM 48.2 °F - 19.4 °F 32% 30.30 in 6.2 mi East 8.1 mph - N/A   Partly Cloudy
1:20 PM 48.2 °F - 23.0 °F 37% 30.27 in 6.2 mi East 8.1 mph - N/A   Partly Cloudy
1:50 PM 50.0 °F - 23.0 °F 35% 30.27 in 6.2 mi East 9.2 mph - N/A   Partly Cloudy
2:20 PM 50.0 °F - 24.8 °F 37% 30.27 in 6.2 mi East 6.9 mph - N/A   Partly Cloudy
2:50 PM 48.2 °F - 24.8 °F 40% 30.27 in 6.2 mi NE 9.2 mph - N/A   Partly Cloudy
3:20 PM 48.2 °F - 26.6 °F 43% 30.27 in 6.2 mi NNE 10.4 mph - N/A   Partly Cloudy
3:50 PM 48.2 °F - 26.6 °F 43% 30.24 in 6.2 mi NE 9.2 mph - N/A   Partly Cloudy
4:20 PM 48.2 °F - 24.8 °F 40% 30.24 in 6.2 mi NE 12.7 mph - N/A   Partly Cloudy
4:50 PM 48.2 °F - 26.6 °F 43% 30.24 in 6.2 mi NE 10.4 mph - N/A   Partly Cloudy
5:20 PM 48.2 °F - 26.6 °F 43% 30.24 in 6.2 mi NE 11.5 mph - N/A   Partly Cloudy
5:50 PM 48.2 °F - 26.6 °F 43% 30.24 in 6.2 mi NE 10.4 mph - N/A   Partly Cloudy
6:20 PM 46.4 °F 41.1 °F 26.6 °F 46% 30.24 in 6.2 mi NE 11.5 mph - N/A   Partly Cloudy
6:50 PM 46.4 °F 41.1 °F 26.6 °F 46% 30.27 in 6.2 mi NE 11.5 mph - N/A   Partly Cloudy
7:20 PM 44.6 °F 39.7 °F 26.6 °F 49% 30.27 in 6.2 mi NE 9.2 mph - N/A   Partly Cloudy
7:50 PM 42.8 °F 38.6 °F 26.6 °F 53% 30.27 in 6.2 mi ENE 6.9 mph - N/A   Partly Cloudy
8:20 PM 41.0 °F 36.4 °F 26.6 °F 57% 30.27 in 6.2 mi ENE 6.9 mph - N/A   Partly Cloudy
8:50 PM 39.2 °F 35.0 °F 26.6 °F 61% 30.30 in 6.2 mi ENE 5.8 mph - N/A   Partly Cloudy
9:20 PM 37.4 °F 33.8 °F 26.6 °F 65% 30.30 in 6.2 mi ENE 4.6 mph - N/A   Partly Cloudy
9:50 PM 35.6 °F 31.7 °F 26.6 °F 70% 30.30 in 6.2 mi ENE 4.6 mph - N/A   Partly Cloudy
10:20 PM 33.8 °F 30.8 °F 24.8 °F 70% 30.30 in 6.2 mi ENE 3.5 mph - N/A   Partly Cloudy
10:50 PM 32.0 °F 27.5 °F 24.8 °F 75% 30.30 in 6.2 mi ENE 4.6 mph - N/A   Partly Cloudy
11:20 PM 33.8 °F 28.6 °F 26.6 °F 75% 30.30 in 6.2 mi ENE 5.8 mph - N/A   Partly Cloudy
11:50 PM 33.8 °F 30.8 °F 26.6 °F 75% 30.30 in 6.2 mi ENE 3.5 mph - N/A   Scattered Clouds